Regional Weather Roundup
Issued by NWS Upton, NY

Current Version | Previous Version | Text Only | Print | Product List | Glossary Off
Versions: 1 2 3 4 5 6 7 8 9 10 11 12 13 14 15 16 17 18 19 20 21 22 23 24 25 26 27 28 29 30 31 32 33 34 35 36 37 38 39 40 41 42 43 44 45 46 47 48 49 50
000 ASUS41 KOKX 281504 RWROKX REGIONAL WEATHER ROUNDUP NATIONAL WEATHER SERVICE NEW YORK NY 1100 AM EDT FRI AUG 28 2015 NOTE: "FAIR" INDICATES FEW OR NO CLOUDS BELOW 12,000 FEET WITH NO SIGNIFICANT WEATHER AND/OR OBSTRUCTIONS TO VISIBILITY. NYZ071-072-176-178-NJZ106-104-281600- NEW YORK CITY METRO AREA CITY SKY/WX TMP DP RH WIND PRES REMARKS CENTRAL PARK SUNNY 73 51 46 VRB5 30.22R LAGUARDIA APRT MOSUNNY 74 53 48 NW5 30.18S KENNEDY INTL MOSUNNY 75 53 46 VRB3 30.19S NEWARK/LIBERTY MOSUNNY 77 52 41 W7 30.19S BRNX BOT. GARD N/A 72 54 53 W3 30.22R TETERBORO SUNNY 75 51 43 N7 30.18S $$ NYZ177-179-078>081-281600- LONG ISLAND NEW YORK CITY SKY/WX TMP DP RH WIND PRES REMARKS FARMINGDALE SUNNY 75 52 44 VRB6 30.19R ISLIP MOSUNNY 74 55 51 VRB3 30.16S SHIRLEY SUNNY 75 56 51 VRB6 30.18S WESTHAMPTON SUNNY 75 56 51 CALM 30.18S MONTAUK POINT N/A 73 58 59 VRB5 30.18R $$ NYZ052-065-067-281600- HUDSON VALLEY CITY SKY/WX TMP DP RH WIND PRES REMARKS WHITE PLAINS MOSUNNY 73 53 49 VRB5 30.19S NEWBURGH NOT AVBL MONTGOMERY SUNNY 71 54 54 E3 30.21R POUGHKEEPSIE SUNNY 72 55 55 N5 30.20R ALBANY MOSUNNY 70 55 59 VRB5 30.21R $$ NJZ001-105-106-008-010-013-015-019>022-104-281600- NEW JERSEY CITY SKY/WX TMP DP RH WIND PRES REMARKS NEWARK/LIBERTY MOSUNNY 77 52 41 W7 30.19S TETERBORO SUNNY 75 51 43 N7 30.18S CALDWELL SUNNY 74 50 42 VRB5 30.20S MORRISTOWN MOSUNNY 75 55 50 NW8 30.21R SOMERVILLE SUNNY 74 52 46 NW6 30.19R SUSSEX SUNNY 70 53 54 VRB3 30.22R ANDOVER N/A 70 54 56 VRB3 30.23R TRENTON SUNNY 74 54 49 N5 30.21R MILLVILLE SUNNY 76 55 48 CALM 30.21R ATLANTIC CITY SUNNY 79 50 36 NE5 30.21R WRIGHTSTOWN SUNNY 74 55 50 N6 30.18S TOMS RIVER SUNNY 73 54 49 NW6 30.21R BELMAR SUNNY 75 54 46 NW7 30.20R $$ PAZ047>061-062-071-281600- EASTERN PENNSYLVANIA CITY SKY/WX TMP DP RH WIND PRES REMARKS PHILADELPHIA SUNNY 77 51 40 NW5 30.21R ALLENTOWN SUNNY 72 56 57 CALM 30.22S SCRANTON MOSUNNY 69 55 60 CALM 30.24S $$ CTZ002-004>006-009-010-012-RIZ004-006-007-MAZ004-011-015-281600- SOUTHERN NEW ENGLAND IN CT CITY SKY/WX TMP DP RH WIND PRES REMARKS BRADLEY INTL MOSUNNY 74 55 51 NE8 30.17S HARTFORD MOSUNNY 73 57 57 N6 30.17S DANBURY SUNNY 71 54 54 CALM 30.20S WTRBRY/OXFORD SUNNY 72 55 56 N5 30.21 BRIDGEPORT SUNNY 74 54 49 E3 30.18R MERIDEN SUNNY 75 54 47 N6 30.18R NEW HAVEN MOSUNNY 73 54 51 NW5 30.18R CHESTER NOT AVBL GROTON SUNNY 76 57 51 VRB3 30.16R WILLIMANTIC SUNNY 74 55 51 CALM 30.17R IN RI CITY SKY/WX TMP DP RH WIND PRES REMARKS PROVIDENCE MOSUNNY 75 55 49 CALM 30.16S BLOCK ISLAND SUNNY 72 61 68 E7 30.18R WESTERLY SUNNY 74 59 59 S10 30.17R IN MA CITY SKY/WX TMP DP RH WIND PRES REMARKS BOSTON MOSUNNY 71 56 58 SE5 30.16R WORCESTER SUNNY 70 51 51 CALM 30.19R WESTFIELD SUNNY 72 55 55 NE6 30.18S PROVINCETOWN SUNNY 70 59 68 N7 30.16R NANTUCKET SUNNY 76 57 51 VRB5 30.15R $$ ANZ330-335-338-340-345-350-353-355-281600- COASTAL MARINE OBSERVATIONS STATION/POSITION TIME SKY/WX TEMP WIND PRES VSBY WAVE AIR SEA DIR/SP/G HT/PER (UTC) (F) (DEG/KT/KT) (MB) (MI) (FT/S) NY HARB ENTRANCE 1350 69 75 350/ 8/ 10 1021.9 2/ 9 4S FIRE IS NOT AVBL 20S FIRE ISLAND 1350 68 74 360/ 8/ 10 1021.6 3/11 GREAT SOUTH BAY 1400 70 78 350/ 4/ 10 N/A 23SW MTP 1450 68 72 360/ 4/ 6 1021.4 2/11 HUDSON CANYON NOT AVBL KINGS POINT 1400 71 72 10/ 2/ 6 1021.4 EXECUTION ROCKS 1400 70 10/ 4/ 6 N/A CENTRAL LI SOUND NOT AVBL EASTERN LI SOUND 1400 72 71 10/ 6/ 10 N/A ROBBINS REEF 1400 69 350/ 6/ 8 1021.1 $$ >>>>>>>>>>>>>>>>>>>>>>>>>>>> KEY <<<<<<<<<<<<<<<<<<<<<<<<<<< > < > SKY/WX - SKY CONDITION/PRESENT WEATHER < > TMP - TEMPERATURE IN FAHRENHEIT < > DP - DEWPOINT IN FAHRENHEIT < > RH - RELATIVE HUMIDITY IN PERCENT < > WIND - DIRECTION AND SPEED IN MPH < > PRES - MEAN SEA LEVEL PRESSURE IN INCHES OF HG < > WCI - WIND CHILL INDEX < > VSB - VISIBILITY IN MILES < > HX - HEAT INDEX < > TC - TEMPERATURE IN CELSIUS < > VRB - VARIABLE WIND DIRECTION < > < >>>>>>>>>>>>>>>>>>>>>>>>>>>> KEY <<<<<<<<<<<<<<<<<<<<<<<<<<<

USA.gov is the U.S. government's official web portal to all federal, state and local government web resources and services.